{"data":{"norad_id":34111,"epoch":"2026-05-25T05:26:32.127072Z","epoch_age_seconds":48685,"freshness":"FRESH","line1":"1 34111U 09009A   26145.22676073 -.00000253  00000+0  00000+0 0  9998","line2":"2 34111   0.0160 336.0572 0002557  72.4646 238.3818  1.00270553 46010","mean_motion":1.00270553,"eccentricity":0.0002557,"inclination_deg":0.016,"raan_deg":336.0572,"arg_perigee_deg":72.4646,"mean_anomaly_deg":238.3818,"bstar":0,"rev_number":4601,"period_min":1436.1145490042,"perigee_km":35776.158728774,"apogee_km":35797.721949325,"semimajor_km":42165.07733905,"source":"CELESTRAK","updated_at":"2026-05-25T13:38:13.863155Z"}}